Regional Weather Roundup
Issued by NWS

Home | Current Version | Previous Version | Graphics & Text | Print | Product List | Glossary On
Versions: 1 2 3 4 5 6 7 8 9 10 11 12 13 14 15 16 17 18 19 20 21 22 23 24 25 26 27 28 29 30 31 32 33 34 35 36 37 38 39 40 41 42 43 44 45 46 47 48 49 50
000
ASUS45 KTFX 141719
RWRMT
MONTANA HOURLY WEATHER ROUNDUP
NATIONAL WEATHER SERVICE GREAT FALLS MT
1119 AM MDT SUN SEP 14 2014

NOTE: "FAIR" INDICATES FEW OR NO CLOUDS BELOW 12000 FEET WITH NO
SIGNIFICANT WEATHER AND/OR OBSTRUCTIONS TO VISIBILITY.

* THESE STATIONS ARE NOT UNDER NWS QUALITY CONTROL. THEY DO NOT
   REPORT WEATHER SUCH AS PRECIPITATION OR FOG.

MTZ001>007-043-141800-
WEST OF THE DIVIDE
CITY           SKY/WX    TMP DP  RH WIND       PRES   REMARKS
KALISPELL      SUNNY     55  37  51 NE9       30.11S
MISSOULA       SUNNY     52  34  50 CALM      30.12S
BUTTE          PTCLDY    48  34  59 CALM      30.14S
MULLAN PASS    SUNNY     50  32  50 VRB5      30.13R
* LINCOLN      N/A       43  32  65 E3         N/A
* LOOKOUT PASS N/A       52  32  47 S8G14      N/A
* POLSON       N/A       56  39  53 N2         N/A
* RONAN APT    SUNNY     57  37  47 N/A        N/A
* SEELEY LAKE  N/A       49  33  54 NW2        N/A
* THOMP F APT  SUNNY     64  30  28 S2         N/A
$$

MTZ008-052>055-141800-
SOUTHWEST MONTANA
CITY           SKY/WX    TMP DP  RH WIND       PRES   REMARKS
BOZEMAN        PTCLDY    50  37  61 VRB3      30.13S
DILLON         SUNNY     52  34  50 CALM      30.12S
W YELLOWSTONE  SUNNY     52  32  47 CALM      30.17F
* THREE FORKS  PTCLDY    52  28  40 N/A        N/A
* BOULDER HILL N/A       52  30  43 S4         N/A
* MONIDA PASS  N/A       59  29  32 W2G7       N/A
* RAYNOLDS PAS N/A       58  40  51 S11G16     N/A
* WHITEHALL    N/A       43  37  79 SW2        N/A
* WISE RIVER   N/A       43  32  65 W4         N/A
$$

MTZ009>010-012-014-046-048-049-054-141800-
EAST SLOPES AND CENTRAL MONTANA
CITY           SKY/WX    TMP DP  RH WIND       PRES   REMARKS
CUT BANK       SUNNY     52  37  57 CALM      30.12R
GREAT FALLS    SUNNY     52  37  57 W5        30.11S
HELENA         SUNNY     52  36  55 N3        30.13R
MALMSTROM AFB  SUNNY     50  39  66 VRB5      30.13S
* CONRAD       SUNNY     52  43  72 N/A        N/A
* EAST GLACIER N/A       55  32  42 E1         N/A
* MONARCH      N/A       49  27  43 NW6        N/A
* PENDROY      N/A       52  34  50 SE3        N/A
* ROGERS PASS  N/A       54  27  35 SE4        N/A
* SAINT MARY   N/A       51  41  69 N2         N/A
* SWEET GRASS  N/A       48  41  77 S12        N/A
* WHITE SULPH  N/A       49  36  61 SW2        N/A
$$

MTZ011-013-016-021-035-040-045-047-050-051-141800-
NORTH CENTRAL MONTANA
CITY           SKY/WX    TMP DP  RH WIND       PRES   REMARKS
HAVRE          SUNNY     52  41  66 CALM      30.12R
LEWISTOWN      SUNNY     54  37  53 W7        30.11R
* CHINOOK      PTCLDY    52  43  72 E8        30.13R
* FORT BENTON  SUNNY     52  37  57 SE5       30.13S
* CHESTER      N/A       52  37  57 S5G10      N/A
* DENTON       N/A       52  36  55 NW8        N/A
* JUDITH GAP   N/A       53  36  53 S1         N/A
* LOMA         N/A       50  38  64 S2         N/A
$$

MTZ017>020-022>027-061-062-141800-
NORTHEAST MONTANA
CITY           SKY/WX    TMP DP  RH WIND       PRES   REMARKS
GLASGOW        CLOUDY    50  34  54 SE10      30.17R
GLENDIVE       CLOUDY    48  34  59 SE3       30.20S
JORDAN         PTSUNNY   54  39  57 SE12      30.14S
SIDNEY         SUNNY     54  34  47 CALM      30.21S
WOLF POINT     CLOUDY    50  37  61 CALM      30.19S
* BEAVER HILL  N/A       49  33  54 E9         N/A
* CIRCLE       N/A       50  36  59 SE7G12     N/A
* LINDSAY DVD  N/A       46  35  66 E8         N/A
* NAVAJO       N/A       52  34  50 SE1G6      N/A
* SACO         N/A       49  40  71 E7         N/A
$$

MTZ028>042-056>058-141800-
SOUTHCENTRAL AND SOUTHEAST MONTANA
CITY           SKY/WX    TMP DP  RH WIND       PRES   REMARKS
BAKER          PTSUNNY   54 N/A N/A E12       30.18S
BILLINGS       SUNNY     50  37  61 VRB3      30.11F
LIVINGSTON     PTCLDY    54  36  51 W8        30.10S
MILES CITY     PTCLDY    55  36  49 SE15      30.14F
* LAUREL APT   PTCLDY    48  36  63 N/A        N/A
* ROUNDUP APT  SUNNY     50  37  61 N/A        N/A
* ALZADA       N/A       49  35  59 E10        N/A
* HYSHAM       N/A       54  32  43 SE9        N/A
* LAME DEER    N/A       49  36  61 SE8        N/A
* REED POINT   N/A       52  36  55 W4         N/A
* ROSCOE HILL  N/A       46  31  56 NE1        N/A
$$

REGIONAL REPORTS...DAKOTAS
CITY           SKY/WX    TMP DP  RH WIND       PRES   REMARKS
WILLISTON      SUNNY     52  36  55 CALM      30.19S
DICKINSON      PTCLDY    50  36  59 NE6       30.18S
BEACH          N/A       48  37  66 SE5       30.19S
CROSBY         SUNNY     50  34  54 NW6       30.19S
TIOGA          PTCLDY    50  36  59 NW7       30.21S
WATFORD CITY   SUNNY     52  32  47 E3        30.17S
BISMARCK       PTCLDY    54  41  62 W6        30.20R
GRAND FORKS    CLOUDY    54  45  72 NW12      30.10S
FARGO          CLOUDY    55  45  69 NW7       30.12R
BUFFALO SD     PTCLDY    54  36  51 SE8       30.11S
RAPID CITY     CLOUDY    48  36  63 S10       30.18S
$$

REGIONAL REPORTS...WYOMING/IDAHO/WASHINGTON
CITY           SKY/WX    TMP DP  RH WIND       PRES   REMARKS
GILLETTE       SUNNY     52  39  61 SE13G18   30.09F
SHERIDAN       SUNNY     48  37  66 CALM      30.10S
CODY           SUNNY     54  37  53 NE5       30.09F
YELLOWSTONE LA SUNNY     55  37  51 CALM      30.23S
SALMON         SUNNY     55  32  42 NW3       30.09F
MULLAN PASS    SUNNY     50  32  50 VRB5      30.13S
SAND POINT     SUNNY     59  39  48 NE8       30.07S
SPOKANE        SUNNY     59  36  42 NE6       30.04R
$$

REGIONAL REPORTS...ALBERTA
CITY           SKY/WX    TMP DP  RH WIND       PRES   REMARKS
CALGARY        PTSUNNY   57  37  47 NW7       30.10R
LETHBRIDGE     SUNNY     50  39  66 W3        30.10S
MEDICINE HAT   PTSUNNY   55  45  69 S6        30.11S
EDMONTON       SUNNY     57  43  60 W5        30.06R
WATERTON GATE  N/A       54  36  51 E2         N/A
CARDSTON       N/A       52  41  66 N5         N/A
$$

REGIONAL REPORTS...SASKATCHEWAN
CITY           SKY/WX    TMP DP  RH WIND       PRES   REMARKS
SWIFT CURRENT  SUNNY     54  37  53 SW12      30.12S
REGINA         PTSUNNY   52  39  61 S6        30.16S
VAL MARIE      N/A       54  37  53 S9         N/A
ASSINIBOIA     N/A       54  32  43 SW6        N/A
CORONACH       N/A       55  32  42 S2         N/A

$$




USA.gov is the U.S. government's official web portal to all federal, state and local government web resources and services.